This demonstration page uses our WeatherBlox Daily Observations layout. Learn more.

40.92945, -100.16068

Hourly Observations for December 26, 2016

Temp ( °F °C ) Dew Point ( °F °C ) Humidity (%) Winds ( mph kmh ) Pressure ( in mb ) Visibility ( mi km ) Precip ( " mm )
12:15 am 00:15 Clear 25 -4 10 -12 54 54 W 20 31 29.88 1012 10 16.0934 N/A
12:35 am 00:35 Clear 25 -4 10 -12.3 53 53 WNW 20 31 29.88 1012 10 16.0934 N/A
12:55 am 00:55 Clear 25 -4 9 -12.6 52 52 W 21 33 29.88 1012 10 16.0934 N/A
1:15 am 01:15 Clear 25 -4.1 10 -12.1 54 54 W 15 24 29.88 1012 10 16.0934 N/A
1:35 am 01:35 Clear 26 -3.6 9 -12.6 50 50 WNW 23 37 29.91 1013 10 16.0934 N/A
1:55 am 01:55 Clear 26 -3.3 10 -12.5 49 49 WNW 24 39 29.91 1013 10 16.0934 N/A
2:15 am 02:15 Clear 26 -3.3 10 -12.2 51 51 W 18 30 29.94 1014 10 16.0934 N/A
2:35 am 02:35 Clear 26 -3.6 10 -12.3 51 51 W 20 31 29.94 1014 10 16.0934 N/A
2:55 am 02:55 Clear 26 -3.6 10 -12.3 51 51 WNW 24 39 29.97 1015 10 16.0934 N/A
3:15 am 03:15 Clear 25 -4 10 -12.5 52 52 WNW 23 37 30 1016 10 16.0934 N/A
3:35 am 03:35 Clear 24 -4.5 9 -12.7 53 53 WNW 25 41 30 1016 10 16.0934 N/A
3:55 am 03:55 Clear 24 -4.7 9 -12.8 54 54 WNW 26 43 30 1016 10 16.0934 N/A
4:15 am 04:15 Clear 23 -5 8 -13.3 53 53 WNW 26 43 30.03 1017 10 16.0934 N/A
4:35 am 04:35 Clear 22 -5.3 8 -13.1 55 55 WNW 21 33 30.03 1017 10 16.0934 N/A
4:55 am 04:55 Clear 22 -5.5 8 -13.1 55 55 WNW 24 39 30.03 1017 10 16.0934 N/A
5:15 am 05:15 Clear 22 -5.3 8 -13.1 55 55 WNW 23 37 30.06 1018 10 16.0934 N/A
5:35 am 05:35 Clear 22 -5.3 9 -12.8 56 56 WNW 20 31 30.06 1018 10 16.0934 N/A
5:55 am 05:55 Clear 23 -5.1 10 -12.5 56 56 WNW 16 26 30.06 1018 10 16.0934 0 0
6:15 am 06:15 Clear 23 -5 10 -12.1 58 58 WNW 23 37 30.06 1018 10 16.0934 N/A
6:35 am 06:35 Clear 23 -5 11 -11.7 60 60 WNW 21 33 30.06 1018 10 16.0934 N/A
6:55 am 06:55 Clear 23 -5.1 11 -11.7 60 60 WNW 22 35 30.09 1019 10 16.0934 N/A
7:15 am 07:15 Clear 23 -5.2 12 -11.2 63 63 WNW 17 28 30.12 1020 10 16.0934 N/A
7:35 am 07:35 Clear 23 -5.1 12 -11 64 64 WNW 17 28 30.12 1020 10 16.0934 N/A
7:55 am 07:55 Clear 23 -5 13 -10.5 66 66 WNW 18 30 30.15 1021 10 16.0934 N/A
8:15 am 08:15 Sunny 24 -4.2 13 -10.3 63 63 WNW 18 30 30.15 1021 10 16.0934 N/A
8:35 am 08:35 Sunny 25 -4 14 -10 63 63 WNW 17 28 30.15 1021 10 16.0934 N/A
8:55 am 08:55 Sunny 27 -3 14 -10.1 58 58 WNW 21 33 30.18 1022 10 16.0934 N/A
9:15 am 09:15 Sunny 28 -2.3 14 -10.2 55 55 W 21 33 30.18 1022 10 16.0934 N/A
9:35 am 09:35 Sunny 29 -1.9 14 -10 54 54 WNW 24 39 30.15 1021 10 16.0934 N/A
9:55 am 09:55 Sunny 29 -1.5 15 -9.7 54 54 WNW 20 31 30.15 1021 10 16.0934 N/A
10:15 am 10:15 Sunny 30 -1 15 -9.5 53 53 WNW 21 33 30.15 1021 10 16.0934 N/A
10:35 am 10:35 Sunny 31 -0.8 15 -9.4 53 53 NW 17 28 30.18 1022 10 16.0934 N/A
10:55 am 10:55 Sunny 32 -0.2 16 -9 52 52 W 17 28 30.18 1022 10 16.0934 N/A
11:15 am 11:15 Sunny 33 0.5 17 -8.6 51 51 WNW 21 33 30.21 1023 10 16.0934 N/A
11:35 am 11:35 Sunny 34 1.2 17 -8.4 49 49 WNW 24 39 30.21 1023 10 16.0934 N/A
11:55 am 11:55 Sunny 35 1.8 18 -8 49 49 WNW 21 33 30.18 1022 10 16.0934 N/A
12:15 pm 12:15 Sunny 36 2.2 18 -7.6 49 49 NW 22 35 30.18 1022 10 16.0934 N/A
12:35 pm 12:35 Sunny 37 2.5 18 -7.6 48 48 WNW 17 28 30.18 1022 10 16.0934 N/A
12:55 pm 12:55 Sunny 37 3 19 -7.4 47 47 NW 17 28 30.15 1021 10 16.0934 N/A
1:15 pm 13:15 Sunny 38 3.6 19 -7.5 44 44 WNW 23 37 30.15 1021 10 16.0934 N/A
1:35 pm 13:35 Sunny 39 4 19 -7.2 44 44 WNW 21 33 30.15 1021 10 16.0934 N/A
1:55 pm 13:55 Sunny 40 4.6 19 -7.3 42 42 NW 20 31 30.12 1020 10 16.0934 N/A
2:15 pm 14:15 Sunny 42 5.3 19 -7.3 40 40 NW 21 33 30.12 1020 10 16.0934 N/A
2:35 pm 14:35 Sunny 42 5.5 18 -7.7 38 38 NW 28 44 30.12 1020 10 16.0934 N/A
2:55 pm 14:55 Sunny 42 5.3 18 -7.8 39 39 NW 25 41 30.15 1021 10 16.0934 N/A
3:15 pm 15:15 Sunny 42 5.5 18 -7.6 39 39 NW 24 39 30.15 1021 10 16.0934 N/A
3:35 pm 15:35 Sunny 42 5.5 19 -7.3 40 40 NW 18 30 30.15 1021 10 16.0934 N/A
3:55 pm 15:55 Sunny 42 5.5 19 -7.2 40 40 NW 13 20 30.18 1022 10 16.0934 N/A
4:15 pm 16:15 Sunny 41 5.1 20 -6.8 42 42 NW 13 20 30.18 1022 10 16.0934 N/A
4:35 pm 16:35 Sunny 40 4.6 20 -6.8 44 44 NW 10 17 30.24 1024 10 16.0934 N/A
4:55 pm 16:55 Sunny 38 3.6 19 -7.1 46 46 NW 8 13 30.24 1024 10 16.0934 N/A
5:15 pm 17:15 Sunny 36 2.2 20 -6.4 53 53 WNW 8 13 30.24 1024 10 16.0934 N/A
5:35 pm 17:35 Clear 35 1.5 21 -6 58 58 W 7 11 30.3 1026 10 16.0934 N/A
5:55 pm 17:55 Clear 32 0.2 21 -6.2 63 63 W 6 9 30.3 1026 10 16.0934 N/A
6:15 pm 18:15 Clear 32 0 21 -6.1 64 64 WNW 6 9 30.3 1026 10 16.0934 N/A
6:35 pm 18:35 Clear 29 -1.6 21 -6.3 71 71 W 8 13 30.33 1027 10 16.0934 N/A
6:55 pm 18:55 Clear 28 -2.1 21 -6.3 73 73 W 8 13 30.33 1027 10 16.0934 N/A
7:15 pm 19:15 Clear 28 -2 20 -6.5 72 72 W 8 13 30.36 1028 10 16.0934 N/A
7:35 pm 19:35 Clear 28 -2.1 20 -6.5 72 72 W 9 15 30.36 1028 10 16.0934 N/A
7:55 pm 19:55 Clear 30 -1.2 20 -6.5 68 68 W 8 13 30.36 1028 10 16.0934 N/A
8:15 pm 20:15 Clear 29 -1.8 20 -6.6 70 70 W 7 11 30.36 1028 10 16.0934 N/A
8:35 pm 20:35 Clear 27 -2.8 20 -6.9 74 74 W 8 13 30.36 1028 10 16.0934 N/A
8:55 pm 20:55 Clear 27 -2.7 19 -7 73 73 W 6 9 30.36 1028 10 16.0934 N/A
9:15 pm 21:15 Clear 25 -3.7 19 -7.2 77 77 WNW 5 7 30.39 1029 10 16.0934 N/A
9:35 pm 21:35 Clear 25 -4 19 -7.5 77 77 W 6 9 30.39 1029 10 16.0934 N/A
9:55 pm 21:55 Clear 27 -2.6 20 -6.6 74 74 WSW 6 9 30.36 1028 10 16.0934 N/A
10:15 pm 22:15 Clear 27 -2.7 19 -7.1 72 72 WSW 7 11 30.36 1028 10 16.0934 N/A
10:35 pm 22:35 Clear 27 -2.8 19 -7 73 73 W 9 15 30.36 1028 10 16.0934 N/A
10:55 pm 22:55 Clear 27 -2.9 19 -7 74 74 W 8 13 30.36 1028 10 16.0934 N/A
11:15 pm 23:15 Clear 25 -4 19 -7.4 77 77 W 7 11 30.39 1029 10 16.0934 N/A
11:35 pm 23:35 Clear 25 -4.1 19 -7.5 77 77 WSW 3 6 30.42 1030 10 16.0934 N/A
11:55 pm 23:55 Clear 25 -3.9 18 -7.9 74 74 Calm 30.39 1029 10 16.0934 N/A

Powered by AerisWeather